User: anonymous   Login
Location: Napier
(39.4830°S, 176.9170°E)
Time: 21:42:54
(UTC+13:00)
Language:

SeaSat 1 - Orbit

View from above orbital plane
View from above orbital plane
View from above satellite
View from above satellite

Ground track
Ground track

The orbit data is extracted from the following two-line orbital elements,

1 10967U 78064A   19292.52538962 -.00000033  00000-0  30619-4 0  9991
2 10967 108.0155 285.3167 0001764 249.8377 110.2578 14.43788414169908
Epoch (UTC): 19 October 2019 12:36:33
Eccentricity: 0.0001764
inclination: 108.0155°
perigee height: 745 km
apogee height: 747 km
right ascension of ascending node: 285.3167°
argument of perigee: 249.8377°
revolutions per day: 14.43788414
mean anomaly at epoch: 110.2578°
orbit number at epoch: 16990

The dashed part of the orbit path shows where the satellite is in the earth's shadow,  

DLR